Starlink 11388

operational
NORAD ID: 62092 Int'l Des: 2024-220 Owner: SPXS Country: US Constellation: starlink
LEOCIRCULAR

Starlink 11388について

説明を読み込み中...

リアルタイム位置

3D地球を読み込み中...

次回通過

高度履歴

Altitude vs Time

uPlot chart will show altitude changes over time

軌道要素

1 62092U 24220E 26036.58879550 .00040507 00000-0 31689-3 0 9999
2 62092 42.9990 236.6456 0001686 292.0029 68.0660 15.70896067 69900
Epoch: Feb 5, 2026 • Age: 15 hours

現在のステータス

高度 368.4 km
速度 7.69 km/s
衛星直下点 -42.72°S, 78.14°W
打ち上げ日 Nov 25, 2024
運用期間 1.1 years
タイプ internet

技術仕様

分類 Payload
質量 960.00 kg
乾燥質量 910.00 kg
総質量 960.00 kg
長さ 0.30 m
直径 4.10 m
スパン 29.00 m
形状 Box + pan
製造者 SPXS
バスタイプ Starlink V2MD
フェーズステータス In Orbit
所有者/国 SPXS/US

大規模コンステレーション

Loading constellations...